Content
SEND FEEDBACK

Daily
Averages
Monthly
Summary
United States of America

GLENVIEW, ILLINOIS


Home > North America > United States > Illinois
Elevation: 653 feet     Latitude: 42 05N     Longitude: 087 50W

WEATHER
 
SELECT A DAY
Number of Records: 197,935;   Date Range: 7/8/95 - 10/24/14
 
SHARE

PRINT THIS DATA

[ ← Previous Day ]
WEATHER ALMANAC - APRIL 7, 2013
[ Next Day → ]
[ °C ]   °F
Weather ElementAverageHighLow
Temperature47.9 °F57 °F (1:52 pm)39 °F (8:52 pm)
Dewpoint37.3 °F48.2 °F (1:47 am)30.9 °F (7:52 pm)
Humidity67.5 %82 % (2:20 am)45 % (1:52 pm)
Barometer29.88 in30.01 in (5:52 pm)29.64 in (1:47 am)
Wind Speed9.7 mph18.4 mph (2:42 am)
Wind Gust25.3 mph (2:42 am)
Weather ElementAverage
Visibility8.8 mi
Wind DirectionSSW (194.2 °)

Weather ElementTotal
Precipitation---
Heating Degree Days17 (Base 65)
Averaged from 31 records on April 7, 2013
WEATHER CONDITIONS BREAKOUT
WIND DIRECTION BREAKOUT
WEATHER BY HOUR - APRIL 7, 2013
[ °C ]   °F
Local TimeTemperatureDewpointHumidityBarometerVisibilityWind DirectionWind SpeedGust SpeedPrecipitationEventsConditions
1:47 AM55.4 °F48.2 °F77 %29.64 in10.0 miWSW (250°)13.8 mph18.4 mphOvercast
1:52 AM54.0 °F48.0 °F80 %29.64 in10.0 miWest (260°)13.8 mph21.9 mphOvercast
2:20 AM53.6 °F48.2 °F82 %29.65 in7.0 miWest (270°)17.3 mph24.2 mphOvercast
2:42 AM51.8 °F46.4 °F82 %29.66 in8.0 miWest (280°)18.4 mph25.3 mphOvercast
2:52 AM51.1 °F45.0 °F80 %29.67 in8.0 miWest (270°)15.0 mph21.9 mphOvercast
3:52 AM50.0 °F43.0 °F77 %29.70 in8.0 miWest (280°)12.7 mphOvercast
4:52 AM48.9 °F41.0 °F74 %29.74 in8.0 miWest (280°)13.8 mph24.2 mphOvercast
5:52 AM46.9 °F39.0 °F74 %29.78 in9.0 miWest (280°)13.8 mphOvercast
6:52 AM45.0 °F37.9 °F76 %29.83 in6.0 miWest (280°)12.7 mphHaze
7:43 AM44.6 °F35.6 °F71 %29.87 in8.0 miWest (270°)12.7 mphScattered Clouds
7:52 AM45.0 °F35.1 °F68 %29.88 in8.0 miWNW (290°)12.7 mph18.4 mphPartly Cloudy
8:52 AM46.0 °F35.1 °F66 %29.90 in8.0 miWest (280°)10.4 mphPartly Cloudy
9:28 AM48.2 °F35.6 °F62 %29.91 in8.0 miWNW (290°)10.4 mphMostly Cloudy
9:52 AM48.0 °F36.0 °F63 %29.91 in8.0 miWest (280°)8.1 mphMostly Cloudy
10:03 AM48.2 °F35.6 °F62 %29.92 in8.0 miWSW (240°)8.1 mphScattered Clouds
10:52 AM50.0 °F36.0 °F59 %29.95 in9.0 miVariable4.6 mphScattered Clouds
11:15 AM51.8 °F35.6 °F54 %29.95 in9.0 miWNW (300°)10.4 mphMostly Cloudy
11:45 AM53.6 °F37.4 °F54 %29.95 in9.0 miWNW (290°)9.2 mphPartly Cloudy
11:52 AM52.0 °F37.0 °F57 %29.96 in9.0 miWNW (300°)10.4 mphPartly Cloudy
12:52 PM55.0 °F37.0 °F51 %29.95 in10.0 miVariable5.8 mphClear
1:52 PM57.0 °F36.0 °F45 %29.96 in10.0 miWSW (250°)6.9 mphClear
2:52 PM52.0 °F37.0 °F57 %29.96 in9.0 miENE (60°)11.5 mphClear
3:52 PM48.9 °F35.1 °F59 %29.97 in9.0 miENE (70°)8.1 mphClear
4:52 PM46.0 °F34.0 °F63 %29.99 in9.0 miEast (100°)9.2 mphClear
5:52 PM43.0 °F33.1 °F68 %30.01 in9.0 miESE (110°)9.2 mphClear
6:52 PM42.1 °F32.0 °F67 %30.00 in10.0 miEast (90°)6.9 mphClear
7:52 PM39.9 °F30.9 °F70 %30.00 in10.0 miEast (90°)3.5 mphClear
8:52 PM39.0 °F30.9 °F73 %30.01 in10.0 miEast (80°)4.6 mphClear
9:52 PM39.0 °F30.9 °F73 %30.01 in10.0 miEast (90°)4.6 mphClear
10:52 PM39.0 °F30.9 °F73 %29.98 in10.0 miCalmClear
11:52 PM39.0 °F32.0 °F76 %29.95 in10.0 miEast (90°)3.5 mphClear
Hourly data recorded from KPWK, located miles away from Glenview, Illinois







STORIES FROM OUR PARTNERS